星链-4690 (STARLINK-4690 )

导读

STARLINK-4690是美国太空探索技术公司(SpaceX)发射的星链卫星,属于星链互联网星座的组网卫星,于2022年8月28日发射升空,旨在为全球提供低延迟、高速率的卫星互联网服务,星链系统通过大量低轨卫星组网,可覆盖偏远地区等地面网络难以触及区域。

基本信息
目录编号:
53604
目录名称:
STARLINK-4690
国际标识:
2022-104S
轨道中心:
EARTH
卫星名称:
星链-4690
卫星全名:
星链-4690 (STARLINK-4690 )
卫星状态:
在轨 (已飞行1389 天)
发射日期:
2022-08-28 UTC
国别 :
美国 (US)
星等 :
--
轨道信息
数据来源 国际轨道数据 AOE轨道数据
星历时间 2026-06-17T13:24:57+0800
3小时前
查看轨道信息
2026-06-17T03:00:00+0800
13小时前
查看轨道信息
半长轴 6917.9km 6917.892km
偏心率 0.0001321 0.0001424
轨道倾角 53.159° 53.157°
近地点辐角 85.488° 92.770°
升交点赤经 152.048° 154.000°
平近点角 274.626° 68.693°
近地点 538.849km 538.769km
远地点 540.677km 540.741km
周期 95.438分钟 95.438分钟
每日圈数 15.088339 15.088363
详细信息
固有亮度:
5
最大亮度:
2.5
卫星平台:
Starlink v1.5
覆盖范围:
全球
运营商:
太空探索技术公司
运营商所在国:
美国
制造商(研发单位):
太空探索技术公司
制造商所在国:
美国
使用方式:
暂无
卫星简介
星链(Starlink)计划是由太空探索技术公司(SpaceX)提出的一个巨型低轨卫星互联网星座项目,计划在2019年至2024年间在太空搭建由约1.2万颗卫星组成的“星链”网络,其中1584颗将部署在地球上空550千米处的近地轨道,并从2020年开始工作。该卫星仍在工作。
2D轨道图
3D轨道图
轨道高度分析图
轨道倾角分析图
轨道综合分析图
查看轨道综合分析图